CAPE
0 0 0 0 0 0 8 0 3 9 0 10 7 36 42 3 43 603 381 439 432 122 155 147 79 0 0 0 0 0 1 23 35 0 0 0 17 0 0 0 7 242 324 294
0 0 0 0 2 0 0 0 1 10 1 0 0 7 13 88 71 169 331 316 387 217 161 71 2 0 0 0 5 6 2 16 7 2 0 0 0 0 0 0 5 323 324 389
0 0 0 0 1 0 0 0 0 21 6 3 0 0 20 0 76 97 346 245 414 401 195 147 79 16 13 0 0 0 1 4 40 50 2 0 1 0 0 0 37 337 391 317
0 0 1 1 0 0 0 0 2 7 8 15 1 0 25 0 1 94 121 319 140 354 211 176 190 56 26 3 0 0 1 0 17 114 137 53 0 0 0 0 36 363 487 387
0 0 0 0 0 0 8 0 2 0 0 7 12 15 13 0 4 0 75 304 213 166 347 281 147 217 86 96 40 85 131 63 76 110 119 90 0 0 0 7 10 319 355 266
0 0 0 0 0 0 1 0 0 0 0 0 10 10 2 4 5 17 62 307 513 256 213 468 485 368 401 287 280 149 209 220 241 313 215 215 84 13 0 3 16 302 265 140
0 0 0 0 0 0 0 0 0 1 4 1 37 61 41 0 0 0 0 233 416 375 211 194 542 715 670 615 537 460 309 317 265 370 455 229 443 137 82 24 92 301 278 173
0 0 0 0 0 0 0 0 0 4 0 23 4 22 18 0 0 0 0 0 93 317 363 278 207 720 775 741 779 762 698 530 480 446 712 765 493 791 414 322 400 293 231 67
0 0 0 0 0 0 1 2 0 8 2 15 0 48 27 0 0 0 0 0 30 39 203 403 465 355 813 788 923 1016 935 850 676 601 599 736 797 718 759 832 521 199 130 111
0 2 0 0 0 0 0 2 8 15 0 3 4 7 42 2 0 0 0 0 0 68 101 103 535 621 489 855 949 1032 1073 1088 1032 924 913 921 1049 1111 996 993 687 309 223 5
0 0 1 16 0 0 0 1 8 12 22 35 54 48 0 0 0 0 0 0 0 1 104 178 347 692 755 703 964 1228 1298 1203 1181 1062 1075 991 1275 1103 785 483 382 305 86 1
0 4 18 1 0 0 1 0 32 24 59 32 27 33 0 0 0 0 0 0 0 0 6 221 347 395 546 1058 1081 1508 1622 1552 1488 1342 1194 1217 1065 615 377 273 73 50 5 0
1 0 17 1 0 0 0 2 1 11 23 25 6 3 12 5 1 0 0 0 0 0 0 113 317 417 501 620 1148 1531 1684 1664 1541 1237 1026 896 378 236 32 1 0 0 0 0
7 14 10 7 0 0 0 1 22 16 28 35 19 20 73 15 5 0 0 0 0 0 0 7 166 425 609 800 961 1152 1078 777 472 231 110 11 0 0 0 1 1 0 0 1
1 38 43 12 10 2 0 0 0 0 4 21 13 0 1 8 1 15 49 22 0 0 0 1 204 539 872 991 677 350 219 54 0 0 2 2 2 2 2 2 3 2 2 1
5 17 50 29 3 1 0 3 0 0 0 4 17 11 11 10 6 2 27 24 26 20 65 43 131 747 1100 745 186 0 2 2 1 0 2 4 3 4 4 3 2 1 1 0
28 53 18 11 4 0 0 0 4 4 4 1 0 0 0 0 6 15 10 0 0 102 129 170 404 1123 656 158 11 0 0 0 0 1 2 2 3 3 2 1 0 0 0 0
64 112 52 55 15 0 0 0 0 0 0 0 1 0 0 1 6 7 0 1 8 82 96 256 719 617 94 0 0 0 0 0 0 1 1 0 0 0 0 0 0 1 0 0
9 176 111 73 8 0 0 0 0 0 0 0 0 0 5 1 12 4 2 3 13 2 38 116 101 56 1 0 0 0 0 0 0 0 0 0 0 0 0 0 0 0 0 0
0 99 79 40 22 0 0 0 0 0 0 0 0 2 5 19 8 5 0 0 0 0 0 0 0 0 0 0 0 0 0 0 0 0 0 0 0 0 0 0 0 0 0 0
0 20 38 30 16 1 0 0 0 0 0 0 6 20 24 2 3 0 0 0 0 0 0 0 0 0 0 0 0 0 0 0 0 0 0 0 0 0 0 0 0 2 0 0
0 2 0 11 16 6 6 6 3 15 88 89 77 51 27 13 2 0 0 0 0 0 0 0 0 0 0 0 0 0 0 0 0 0 0 0 0 0 0 0 0 0 0 0
5 0 8 33 10 24 33 18 33 57 167 135 159 105 58 0 0 0 0 0 0 0 0 0 0 0 0 0 0 0 0 0 0 0 0 0 0 0 0 0 0 0 0 0
54 84 17 14 40 100 107 40 18 32 76 127 121 123 107 29 0 0 0 0 0 0 0 0 0 0 0 0 0 0 0 0 0 0 0 0 0 0 0 0 0 0 0 0
1 55 43 8 12 0 1 0 25 47 72 72 73 36 27 31 0 0 0 0 0 0 0 0 0 0 0 0 0 0 0 0 0 0 0 0 0 0 0 0 0 0 0 0
0 0 0 4 8 33 37 102 73 45 80 147 64 24 0 25 0 0 0 0 0 0 0 0 0 0 0 0 0 0 0 0 0 0 0 0 0 0 0 0 0 0 0 0
CIN
-0 -0 -0 -0 -0 -0 -3 -0 -27 -29 -3 -14 -14 -7 -97 -103 -135 -5 -9 -8 -12 -20 -22 -47 -111 -0 -0 -0 -0 -0 -5 -4 -3 -0 -0 -0 -27 -0 -0 -0 -24 -12 -10 -10
-0 -0 -0 -0 -2 -0 -0 -0 -7 -7 -15 -0 -0 -7 -44 -58 -13 -8 -7 -10 -7 -13 -31 -76 -9 -0 -0 -0 -28 -31 -0 -42 -14 -9 -0 -0 -0 -0 -0 -0 -5 -18 -10 -15
-0 -0 -0 -0 -1 -0 -0 -0 -5 -30 -17 -42 -0 -0 -10 -2 -1 -3 -2 -3 -13 -3 -12 -49 -93 -45 -23 -0 -0 -0 -52 -154 -79 -48 -23 -0 -3 -0 -0 -0 -29 -5 -21 -33
-0 -0 -4 -3 -0 -0 -0 -0 -3 -4 -5 -3 -12 -7 -28 -8 -1 -27 -10 -3 -27 -13 -20 -69 -50 -119 -95 -140 -0 -0 -3 -0 -63 -25 -23 -54 -0 -0 -0 -0 -42 -11 -17 -19
-0 -0 -0 -0 -0 -0 -3 -0 -13 -0 -0 -5 -6 -26 -12 -13 -3 -0 -26 -22 -61 -67 -44 -67 -124 -119 -154 -116 -143 -105 -65 -91 -79 -61 -50 -56 -1 -0 -0 -62 -72 -7 -24 -21
-0 -0 -0 -0 -0 -0 -5 -0 -0 -0 -0 -0 -4 -12 -35 -17 -5 -2 -19 -24 -39 -62 -56 -28 -60 -100 -101 -109 -99 -142 -95 -72 -48 -44 -62 -47 -100 -133 -0 -35 -68 -39 -56 -76
-0 -0 -0 -0 -0 -0 -0 -0 -0 -1 -1 -14 -9 -7 -23 -0 -8 -7 -0 -19 -29 -28 -37 -40 -18 -46 -70 -90 -104 -104 -132 -114 -93 -41 -55 -79 -42 -117 -90 -86 -54 -97 -101 -139
-0 -0 -0 -0 -0 -0 -0 -0 -0 -4 -0 -9 -32 -21 -2 -0 -0 -0 -0 -0 -9 -9 -11 -17 -25 -10 -50 -87 -106 -102 -110 -118 -96 -73 -27 -26 -41 -4 -39 -18 -19 -73 -88 -161
-0 -0 -0 -0 -0 -0 -3 -5 -0 -25 -45 -22 -5 -22 -19 -0 -0 -0 -0 -0 -11 -12 -7 -15 -18 -15 -16 -49 -86 -114 -100 -101 -89 -96 -88 -67 -68 -42 -37 -7 -35 -128 -136 -123
-0 -3 -0 -0 -0 -0 -0 -10 -3 -3 -1 -8 -1 -4 -19 -7 -0 -0 -0 -0 -0 -24 -21 -24 -8 -11 -17 -21 -47 -80 -94 -64 -65 -58 -76 -65 -60 -32 -15 -6 -39 -114 -93 -218
-0 -0 -3 -4 -0 -0 -0 -1 -8 -4 -3 -2 -11 -14 -45 -0 -0 -0 -0 -0 -0 -10 -49 -49 -30 -4 -19 -20 -15 -34 -37 -36 -27 -45 -38 -63 -26 -53 -65 -114 -131 -115 -158 -66
-0 -8 -4 -15 -0 -0 -2 -0 -5 -1 -2 -21 -31 -17 -1 -26 -0 -0 -0 -0 -0 -0 -50 -50 -50 -50 -16 -12 -10 -21 -21 -15 -8 -7 -8 -13 -28 -113 -135 -150 -212 -197 -251 -0
-15 -0 -4 -37 -0 -0 -0 -7 -2 -1 -5 -1 -12 -31 -28 -16 -15 -0 -0 -0 -0 -0 -0 -34 -59 -68 -64 -28 -8 -7 -14 -12 -4 -18 -34 -62 -183 -240 -320 -102 -0 -0 -0 -0
-35 -2 -7 -13 -0 -0 -0 -0 -6 -6 -1 -7 -2 -14 -6 -21 -51 -32 -0 -0 -0 -4 -0 -32 -12 -28 -42 -53 -48 -48 -90 -158 -230 -307 -379 -225 -0 -0 -0 -0 -0 -0 -0 -0
-31 -0 -1 -3 -10 -16 -0 -0 -0 -0 -5 -3 -4 -1 -6 -4 -10 -14 -11 -17 -3 -0 -0 -20 -10 -17 -28 -84 -229 -360 -397 -464 -0 -0 -0 -0 -0 -0 -0 -0 -0 -0 -0 -0
-45 -8 -3 -0 -17 -25 -6 -4 -0 -0 -0 -2 -1 -2 -7 -4 -9 -27 -3 -35 -52 -16 -51 -69 -30 -24 -40 -162 -367 -0 -0 -0 -0 -0 -0 -0 -0 -0 -0 -0 -0 -0 -0 -0
-51 -12 -6 -8 -9 -0 -0 -0 -2 -4 -1 -3 -0 -1 -0 -0 -6 -2 -8 -7 -0 -60 -93 -101 -50 -33 -147 -330 -343 -0 -0 -0 -0 -0 -0 -0 -0 -0 -0 -0 -0 -0 -0 -0
-28 -3 -4 -1 -10 -0 -0 -0 -0 -0 -0 -0 -3 -0 -2 -5 -3 -10 -0 -3 -56 -96 -130 -96 -84 -126 -241 -0 -0 -0 -0 -0 -0 -0 -0 -0 -0 -0 -0 -0 -0 -0 -0 -0
-54 -18 -1 -4 -4 -0 -0 -0 -0 -0 -0 -0 -0 -0 -1 -4 -10 -66 -77 -39 -93 -30 -201 -190 -224 -246 -42 -0 -0 -0 -0 -0 -0 -0 -0 -0 -0 -0 -0 -0 -0 -0 -0 -0
-0 -17 -7 -9 -4 -0 -0 -0 -0 -0 -0 -0 -0 -7 -5 -22 -32 -25 -0 -0 -0 -0 -0 -0 -0 -0 -0 -0 -0 -0 -0 -0 -0 -0 -0 -0 -1 -0 -0 -0 -0 -0 -0 -0
-0 -6 -7 -13 -5 -0 -0 -2 -11 -0 -0 -9 -2 -3 -5 -13 -14 -0 -0 -0 -0 -0 -0 -0 -0 -0 -0 -0 -0 -0 -0 -0 -0 -0 -0 -0 -0 -0 -0 -0 -0 -3 -0 -0
-2 -2 -5 -15 -2 -2 -10 -26 -15 -42 -50 -8 -7 -4 -15 -55 -88 -0 -0 -0 -0 -0 -0 -0 -0 -0 -0 -0 -0 -0 -0 -0 -0 -0 -0 -0 -0 -0 -0 -0 -0 -0 -0 -0
-9 -0 -5 -13 -6 -18 -34 -9 -28 -21 -11 -22 -13 -5 -9 -3 -0 -0 -0 -0 -0 -0 -0 -0 -0 -0 -0 -0 -0 -0 -0 -0 -0 -0 -0 -0 -0 -0 -0 -0 -0 -0 -0 -0
-27 -34 -5 -25 -10 -5 -21 -19 -21 -41 -68 -52 -41 -32 -24 -49 -0 -0 -0 -0 -0 -0 -0 -0 -0 -0 -0 -0 -0 -0 -0 -0 -0 -0 -0 -0 -0 -0 -0 -0 -0 -0 -0 -0
-18 -30 -19 -2 -0 -0 -47 -0 -31 -37 -66 -64 -75 -92 -72 -89 -0 -0 -0 -0 -0 -0 -0 -0 -0 -0 -0 -0 -0 -0 -0 -0 -0 -0 -0 -0 -0 -0 -0 -0 -0 -0 -0 -0
-0 -0 -0 -20 -15 -34 -43 -46 -50 -52 -78 -44 -53 -82 -0 -73 -0 -0 -0 -0 -0 -0 -0 -0 -0 -0 -0 -0 -0 -0 -0 -0 -0 -0 -0 -0 -0 -0 -0 -0 -0 -0 -0 -0
Wind_Speed
4 3 6 3 4 5 5 4 8 14 17 12 25 14 7 9 22 10 10 10 11 13 17 20 24 24 29 33 35 36 34 34 33 32 31 29 26 27 26 24 21 15 11 7
6 10 6 6 3 15 7 2 11 14 11 13 23 24 8 6 8 8 9 8 9 13 16 18 20 23 27 30 30 31 30 29 28 26 26 24 22 21 21 16 15 12 9 4
11 6 4 7 10 10 4 3 4 16 16 17 13 16 25 9 10 9 10 10 10 14 16 18 21 25 26 25 27 28 26 26 26 24 22 21 19 17 16 14 11 7 5 3
13 11 15 5 9 3 3 5 6 4 5 10 18 29 19 2 7 10 13 13 14 17 19 18 22 23 25 24 26 26 25 25 24 23 19 17 15 14 10 9 10 6 3 2
12 10 10 12 7 2 5 9 10 4 2 23 2 14 26 10 16 12 12 11 12 17 18 19 21 22 24 24 25 25 24 23 22 20 18 12 9 8 10 7 5 1 1 5
16 16 10 11 7 4 8 3 7 11 12 8 21 17 8 21 11 4 14 12 11 16 17 20 21 21 22 22 22 23 23 20 20 17 15 14 10 7 4 3 3 2 4 4
18 18 16 13 10 5 4 3 8 5 11 7 21 25 25 10 20 15 10 13 13 12 14 17 18 19 19 20 20 19 20 21 20 15 12 14 13 9 7 4 4 3 3 4
17 20 14 13 13 7 3 4 12 4 6 15 21 13 10 8 7 11 11 8 6 11 11 12 14 16 17 18 18 17 17 17 16 14 11 9 10 7 5 6 6 6 6 6
19 23 17 15 10 8 7 4 20 7 3 4 10 22 10 6 10 10 11 11 5 3 2 9 9 10 13 14 15 16 15 14 15 14 13 10 13 12 10 10 8 9 9 11
30 22 24 13 10 9 9 11 12 1 8 5 4 15 17 7 9 10 10 12 12 10 13 7 10 12 11 12 14 15 15 13 13 11 12 12 10 10 12 11 11 12 11 12
42 32 22 18 16 12 13 12 7 8 7 14 4 13 12 17 10 8 11 11 11 12 9 12 13 6 10 8 10 13 13 12 12 14 13 13 11 12 13 10 12 13 12 12
43 26 25 21 13 16 18 8 5 12 10 9 14 5 11 21 12 8 8 9 10 10 10 9 9 11 10 8 7 9 10 10 11 11 12 13 10 14 14 15 14 13 13 12
38 39 29 22 23 19 17 14 10 8 6 10 7 12 14 18 16 15 14 9 6 7 7 8 8 8 7 7 5 4 5 5 8 10 10 10 13 13 13 13 12 12 11 13
43 38 34 27 23 20 23 20 9 12 16 20 9 4 16 14 19 14 10 9 10 5 6 8 6 7 8 8 8 8 10 13 12 10 8 8 9 11 11 12 12 12 13 13
30 43 38 33 35 18 20 17 20 19 9 9 9 7 16 15 3 17 14 13 12 12 10 11 10 5 5 7 9 10 11 11 10 10 9 10 11 12 12 12 13 13 14 13
32 35 40 35 38 38 31 23 13 10 10 10 9 8 20 33 21 2 8 10 13 12 14 16 13 6 5 7 10 11 12 11 10 10 11 12 12 12 13 13 13 13 13 13
30 32 35 43 37 38 42 33 24 17 13 11 14 9 10 10 11 8 8 8 10 9 13 15 12 5 7 8 10 12 11 9 8 8 8 9 10 12 13 12 12 13 13 12
27 31 32 37 33 48 36 34 30 32 34 29 21 17 11 9 6 10 10 7 7 10 12 11 11 9 7 8 11 8 5 4 4 5 6 8 8 9 10 11 12 12 12 12
28 32 33 36 36 37 34 26 24 23 24 23 17 16 19 7 11 14 12 15 9 10 10 9 8 7 7 7 4 4 4 3 3 4 5 7 8 9 10 12 12 12 13 14
34 33 37 29 34 37 28 26 21 27 29 29 27 27 21 11 12 16 7 11 9 7 7 6 5 5 4 3 3 4 4 4 5 6 7 8 9 11 11 12 13 13 13 13
35 34 39 36 33 32 26 30 33 25 22 26 27 24 21 16 17 10 9 9 6 5 4 4 3 2 2 2 2 2 3 4 5 6 8 9 10 11 12 11 12 12 15 16
25 31 36 33 36 40 22 26 20 26 24 27 29 23 22 15 13 11 8 6 5 4 3 2 2 2 1 0 0 2 4 5 5 7 8 9 10 11 13 14 15 15 15 17
29 29 32 27 29 26 25 30 28 28 27 27 25 22 21 12 12 10 9 6 4 4 3 2 2 1 1 1 1 3 4 5 6 7 9 10 11 13 14 14 16 17 18 19
26 19 30 29 34 23 23 24 28 29 29 28 28 25 25 13 11 12 10 8 7 5 4 3 2 2 2 2 3 4 4 5 6 8 9 11 13 14 15 16 18 18 21 23
34 25 25 30 35 30 33 28 25 27 29 30 29 28 30 14 13 12 11 10 9 7 6 5 4 4 3 3 4 5 5 6 7 9 11 13 14 15 16 18 19 19 20 22
31 32 35 33 28 28 29 26 26 31 33 36 29 29 27 17 16 13 11 10 9 8 7 6 5 4 3 4 5 6 6 7 9 10 13 14 15 17 17 17 19 20 19 20
Wind_Direction
239 238 199 203 206 259 318 356 197 347 338 4 300 340 70 156 190 97 77 78 92 93 102 114 124 114 129 138 143 150 149 150 145 147 151 152 147 158 163 164 161 154 151 155
236 209 211 200 241 338 359 116 186 348 10 354 301 303 42 71 87 84 74 90 88 104 111 114 121 129 139 145 143 150 147 146 148 145 152 152 151 156 161 154 158 153 156 154
220 228 206 206 325 343 16 128 47 215 330 216 196 205 271 22 95 86 95 104 100 125 123 124 130 144 142 143 148 152 150 152 155 152 150 154 154 153 156 161 161 158 162 185
220 205 301 275 316 350 28 113 154 147 33 355 320 267 212 185 117 110 120 114 123 135 137 131 140 145 153 149 153 156 154 156 160 164 154 155 156 158 151 153 164 172 186 221
227 248 256 290 294 316 337 35 173 79 154 233 182 336 258 124 168 145 132 124 124 145 143 143 147 151 157 158 160 163 163 163 163 164 169 157 155 159 165 166 174 198 338 325
256 270 253 268 290 312 348 33 156 186 187 185 222 300 340 297 285 129 155 141 140 151 152 155 153 155 159 163 164 169 171 170 171 167 168 174 172 172 180 190 201 269 294 301
259 257 268 273 274 216 330 21 158 138 171 158 273 263 275 51 184 168 73 145 151 153 158 162 163 163 164 167 169 169 173 178 178 176 174 180 182 181 185 201 204 232 232 277
249 253 218 265 272 267 274 165 168 93 130 341 297 325 344 357 41 352 8 14 92 155 159 167 173 173 172 173 174 176 178 182 183 186 188 189 193 208 227 230 282 251 261 275
243 256 253 256 260 256 278 191 188 22 26 25 352 263 347 27 4 18 5 3 60 326 285 195 186 188 184 182 185 185 185 190 192 196 198 209 201 206 249 250 260 270 274 303
258 259 256 237 248 223 257 311 167 12 5 92 48 311 317 343 350 13 31 25 18 353 320 316 190 187 189 189 190 191 193 197 200 209 210 217 231 246 266 270 275 294 304 309
242 258 258 245 241 247 269 281 279 186 306 321 126 341 302 306 4 2 21 23 14 17 8 325 311 298 201 204 202 197 201 207 212 214 223 226 239 258 270 290 302 307 308 306
240 258 256 248 242 259 267 252 237 281 302 311 312 343 330 308 326 337 355 6 6 16 18 11 354 323 311 218 216 200 201 217 230 240 258 239 255 289 310 313 314 316 315 321
236 246 252 248 250 254 254 265 267 207 268 288 289 308 319 315 318 323 325 329 351 17 18 19 2 352 340 312 294 250 231 233 245 274 275 287 300 313 319 321 324 323 324 327
241 244 247 246 248 254 258 262 244 202 276 286 280 294 200 321 314 316 319 307 314 345 354 353 9 357 350 335 315 312 314 311 313 320 314 308 315 325 330 330 329 329 329 330
247 238 246 252 250 245 258 260 266 270 261 257 291 226 199 233 20 319 332 331 326 316 332 329 333 344 0 347 335 323 317 319 321 320 324 329 330 333 334 333 332 334 335 335
250 246 243 251 249 252 260 264 244 240 242 269 253 234 207 248 297 196 339 334 311 308 316 313 318 322 328 329 328 324 320 319 322 321 320 324 327 330 333 335 336 341 341 343
248 245 244 246 250 254 254 257 270 274 269 279 284 295 300 207 306 317 326 327 321 320 318 314 309 330 325 325 324 318 314 316 318 322 325 326 329 331 332 341 344 343 343 347
250 248 245 248 250 249 260 260 268 272 272 279 291 300 304 297 287 320 328 342 332 322 324 318 310 317 325 331 331 333 331 324 323 329 333 336 341 345 346 346 345 348 349 350
256 253 246 247 251 259 258 264 266 272 278 281 284 292 297 275 301 310 318 316 323 316 321 320 314 314 323 337 10 43 60 52 26 6 356 349 347 347 344 343 345 346 345 344
253 254 248 250 252 256 260 258 273 274 279 277 284 291 296 301 300 310 329 328 328 329 330 326 329 336 355 23 47 51 44 31 5 357 351 348 344 342 343 343 342 342 345 344
248 248 247 251 258 264 267 259 262 270 284 283 283 289 288 295 303 320 326 329 330 331 333 335 335 342 1 41 55 28 24 2 4 358 349 343 342 340 340 344 345 342 343 345
249 250 249 254 257 258 278 265 249 271 271 280 286 292 296 305 312 318 319 314 310 309 311 311 309 311 335 57 10 336 340 356 354 346 341 341 342 342 342 341 341 340 342 340
251 255 255 257 261 273 269 267 264 268 277 282 296 292 300 300 306 312 307 297 293 291 289 262 260 256 269 229 284 309 325 335 338 335 335 337 339 340 340 339 337 337 339 336
253 259 265 275 261 274 277 273 271 272 276 283 286 292 296 296 302 302 300 291 290 288 274 274 255 245 243 270 290 307 319 323 325 328 331 334 334 335 335 337 336 336 334 332
253 255 262 260 251 269 267 276 289 283 280 281 286 291 292 292 293 293 291 289 286 282 280 272 263 264 270 293 307 313 318 321 321 325 328 330 331 332 333 336 336 334 336 334
257 260 259 267 279 280 282 288 285 283 285 281 284 289 295 291 293 292 289 286 283 278 281 280 278 273 289 305 310 314 314 315 319 324 327 329 330 331 331 330 332 338 337 339